CW7769 Weather Reports


time (UTC)temp
C
wind
direction
speed
KPH
gust
KPH
rain 1hr
cm
rain 24hr
cm
rain mn
cm
humidity
%
barometer
mb
20260906205132 20 78 1.6 4.8 0.00 0.00 0.00 43 1022.6
20260906204144 20 81 0.0 4.8 0.00 0.00 0.00 43 1022.7
20260906203156 20 67 0.0 0.0 0.00 0.00 0.00 42 1022.6
20260906202159 20 67 0.0 0.0 0.00 0.00 0.00 41 1022.7
20260906201125 20 67 0.0 0.0 0.00 0.00 0.00 40 1022.8
20260906194009 20 67 0.0 0.0 0.00 0.00 0.00 41 1023.0
20260906192939 20 67 0.0 0.0 0.00 0.00 0.00 41 1023.1
20260906192000 20 67 0.0 0.0 0.00 0.00 0.00 40 1023.1
20260906190932 20 67 0.0 0.0 0.00 0.00 0.00 39 1023.2
20260906185910 20 67 0.0 0.0 0.00 0.00 0.00 39 1023.2
20260906184844 21 67 0.0 0.0 0.00 0.00 0.00 38 1023.2
20260906183902 21 67 0.0 0.0 0.00 0.00 0.00 36 1023.1
20260906182839 22 67 0.0 0.0 0.00 0.00 0.00 34 1023.1
20260906181812 22 67 0.0 0.0 0.00 0.00 0.00 32 1023.0
20260906180739 23 67 0.0 0.0 0.00 0.00 0.00 31 1023.0
20260906175730 23 67 0.0 1.6 0.00 0.00 0.00 31 1023.0
20260906174715 23 68 1.6 4.8 0.00 0.00 0.00 29 1023.0
20260906173644 24 69 1.6 4.8 0.00 0.00 0.00 28 1022.9
20260906172616 24 70 3.2 6.4 0.00 0.00 0.00 27 1022.9
20260906171554 25 73 3.2 6.4 0.00 0.00 0.00 27 1022.9
20260906170617 25 71 4.8 11.3 0.00 0.00 0.00 26 1023.0
20260906165629 25 74 4.8 11.3 0.00 0.00 0.00 26 1023.1
20260906163511 25 71 4.8 11.3 0.00 0.00 0.00 26 1023.2
20260906161321 26 82 4.8 16.1 0.00 0.00 0.00 25 1023.3
20260906160251 26 47 3.2 12.9 0.00 0.00 0.00 25 1023.3
20260906155245 26 74 6.4 16.1 0.00 0.00 0.00 24 1023.4
20260906154303 26 78 6.4 14.5 0.00 0.00 0.00 25 1023.5
20260906153301 26 78 4.8 12.9 0.00 0.00 0.00 25 1023.5
20260906152244 26 58 4.8 14.5 0.00 0.00 0.00 26 1023.6
20260906150037 26 28 4.8 12.9 0.00 0.00 0.00 26 1023.8
20260906145101 26 40 4.8 14.5 0.00 0.00 0.00 25 1024.0
20260906142926 26 65 4.8 14.5 0.00 0.00 0.00 25 1024.2
20260906141940 26 69 6.4 14.5 0.00 0.00 0.00 26 1024.3
20260906141000 26 40 4.8 12.9 0.00 0.00 0.00 25 1024.3
20260906140008 27 34 3.2 12.9 0.00 0.00 0.00 25 1024.3
20260906135021 26 61 4.8 12.9 0.00 0.00 0.00 26 1024.5
20260906134043 26 22 3.2 11.3 0.00 0.00 0.00 26 1024.5
20260906133012 25 70 3.2 11.3 0.00 0.00 0.00 27 1024.7
20260906132026 25 33 3.2 16.1 0.00 0.00 0.00 28 1024.8
20260906131031 26 68 3.2 16.1 0.00 0.00 0.00 27 1024.9
20260906125958 26 69 1.6 14.5 0.00 0.00 0.00 27 1025.0
20260906124946 26 51 3.2 14.5 0.00 0.00 0.00 29 1025.2
20260906122844 26 68 4.8 14.5 0.00 0.00 0.00 28 1025.4
20260906121856 25 31 4.8 14.5 0.00 0.00 0.00 30 1025.4
20260906120827 25 64 3.2 17.7 0.00 0.00 0.00 30 1025.7
20260906114630 24 44 1.6 8.0 0.00 0.00 0.00 33 1026.0
20260906112507 25 71 1.6 14.5 0.00 0.00 0.00 34 1026.2
20260906111512 24 19 3.2 14.5 0.00 0.00 0.00 33 1026.3
20260906110525 23 32 1.6 12.9 0.00 0.00 0.00 34 1026.2
20260906105518 24 57 4.8 12.9 0.00 0.00 0.00 33 1026.3
20260906104451 24 42 1.6 11.3 0.00 0.00 0.00 34 1026.3
20260906103443 23 78 1.6 11.3 0.00 0.00 0.00 37 1026.7
20260906102452 23 26 1.6 11.3 0.00 0.00 0.00 36 1026.9
20260906101437 23 51 1.6 6.4 0.00 0.00 0.00 36 1027.0
20260906100413 23 94 3.2 8.0 0.00 0.00 0.00 36 1027.1
20260906095340 22 73 3.2 11.3 0.00 0.00 0.00 38 1027.0
20260906094347 22 60 1.6 11.3 0.00 0.00 0.00 40 1027.0
20260906093315 22 57 1.6 11.3 0.00 0.00 0.00 40 1027.2
20260906092306 21 59 1.6 11.3 0.00 0.00 0.00 42 1027.2
20260906091317 20 36 1.6 9.7 0.00 0.00 0.00 44 1027.4
20260906090245 21 70 1.6 6.4 0.00 0.00 0.00 43 1027.5
20260906081909 19 26 0.0 4.8 0.00 0.00 0.00 48 1027.7
20260906080851 19 52 0.0 4.8 0.00 0.00 0.00 49 1027.9
20260906075846 18 23 0.0 4.8 0.00 0.00 0.00 52 1027.8
20260906074825 17 36 0.0 3.2 0.00 0.00 0.00 54 1027.7
20260906072640 17 25 0.0 0.0 0.00 0.00 0.00 56 1027.6
20260906071615 16 25 0.0 0.0 0.00 0.00 0.00 57 1027.6
20260906070633 16 25 0.0 0.0 0.00 0.00 0.00 58 1027.7
20260906065629 15 25 0.0 0.0 0.00 0.00 0.00 60 1027.6
20260906064636 14 25 0.0 0.0 0.00 0.00 0.00 61 1027.7
20260906063657 13 25 0.0 0.0 0.00 0.00 0.00 63 1027.6
20260906062641 13 25 0.0 0.0 0.00 0.00 0.00 65 1027.7
20260906061645 12 25 0.0 0.0 0.00 0.00 0.00 66 1027.8
20260906060616 12 25 0.0 0.0 0.00 0.00 0.00 67 1027.8
20260906054450 11 25 0.0 0.0 0.00 0.00 0.00 66 1027.7
20260906053505 11 25 0.0 0.0 0.00 0.00 0.00 67 1027.5
20260906052505 11 25 0.0 0.0 0.00 0.00 0.00 66 1027.7
20260906051443 11 25 0.0 0.0 0.00 0.00 0.00 65 1027.4
20260906050417 11 25 0.0 0.0 0.00 0.00 0.00 65 1027.4
20260906045349 11 25 0.0 0.0 0.00 0.00 0.00 65 1027.5
20260906044329 11 25 0.0 0.0 0.00 0.00 0.00 64 1027.5
20260906043327 11 25 0.0 0.0 0.00 0.00 0.00 64 1027.4
20260906042335 11 25 0.0 0.0 0.00 0.00 0.00 64 1027.4
20260906041352 11 25 0.0 0.0 0.00 0.00 0.00 64 1027.3
20260906040330 11 25 0.0 0.0 0.00 0.00 0.00 64 1027.4
20260906034144 11 25 0.0 0.0 0.00 0.00 0.00 64 1027.2
20260906033156 11 25 0.0 0.0 0.00 0.00 0.00 63 1027.5
20260906032130 11 25 0.0 0.0 0.00 0.00 0.00 63 1027.5
20260906031153 11 25 0.0 0.0 0.00 0.00 0.00 63 1027.6
20260906030137 11 25 0.0 0.0 0.00 0.00 0.00 63 1027.5
20260906025144 11 25 0.0 0.0 0.00 0.00 0.00 62 1027.5
20260906024141 11 25 0.0 0.0 0.00 0.00 0.00 62 1027.5
20260906023108 12 25 0.0 0.0 0.00 0.00 0.00 62 1027.6
20260906022043 12 25 0.0 0.0 0.00 0.00 0.00 62 1027.5
20260906021038 12 25 0.0 0.0 0.00 0.00 0.00 61 1027.5
20260906014951 12 25 0.0 0.0 0.00 0.00 0.00 60 1027.4
20260906013917 12 25 0.0 0.0 0.00 0.00 0.00 60 1027.2
20260906012931 12 25 0.0 0.0 0.00 0.00 0.00 59 1027.2
20260906011918 12 25 0.0 0.0 0.00 0.00 0.00 59 1027.3
20260906010902 12 25 0.0 0.0 0.00 0.03 0.00 59 1027.5
20260906005849 13 25 0.0 0.0 0.00 0.03 0.00 59 1027.2
20260906004833 13 25 0.0 0.0 0.00 0.08 0.00 58 1027.4
20260906003802 13 25 0.0 0.0 0.00 0.08 0.00 58 1027.3
20260906002745 13 25 0.0 0.0 0.00 0.08 0.00 57 1027.3
20260906001808 13 25 0.0 0.0 0.00 0.08 0.00 56 1027.4
20260906000754 13 25 0.0 0.0 0.00 0.08 0.00 56 1027.3
20260905235814 14 25 0.0 0.0 0.00 0.08 0.00 56 1027.1
20260905234804 14 25 0.0 0.0 0.00 0.08 0.00 55 1027.0
20260905233744 14 25 0.0 0.0 0.00 0.08 0.00 54 1026.8
20260905232730 15 25 0.0 0.0 0.00 0.08 0.00 53 1026.7
20260905231749 15 25 0.0 0.0 0.00 0.08 0.00 53 1026.6
20260905230750 15 25 0.0 0.0 0.00 0.08 0.00 53 1026.7
20260905222512 16 25 0.0 0.0 0.00 0.08 0.00 48 1026.3
20260905220309 16 25 0.0 0.0 0.00 0.08 0.00 47 1026.0
20260905215253 16 25 0.0 0.0 0.00 0.08 0.08 47 1026.1
20260905214231 16 25 0.0 0.0 0.00 0.08 0.08 47 1026.0
20260905213220 16 25 0.0 0.0 0.00 0.08 0.08 47 1026.0
20260905211120 16 25 0.0 0.0 0.00 0.08 0.08 46 1025.8